ITY715 LIPZ-LGKR

Flight info

Callsign ITY715
Flight time 1h 18m
Altitude 39000
Route CHI DCT NOSTO
Aircraft A359/H-SDE1E2E3FGHIJ2J3J4J5M1RWXY/LB1D1

Departure

Time 2026-04-29 17:10
Airport Venice Marco Polo Airport (LIPZ)

Arrival

Time 2026-04-29 18:28
Airport Corfu Ioannis Kapodistrias International Airport (LGKR)
Time Latitude Longitude Altitude Speed Heading
2026-04-29 16:50 45.50357 12.34196 20 ft 0 kts 289°
2026-04-29 17:02 45.50350 12.34223 20 ft 3 kts 289°
2026-04-29 17:02 45.50342 12.34256 20 ft 3 kts 289°
2026-04-29 17:02 45.50334 12.34289 20 ft 3 kts 289°
2026-04-29 17:02 45.50327 12.34319 20 ft 3 kts 264°
2026-04-29 17:03 45.50337 12.34342 20 ft 3 kts 206°
2026-04-29 17:03 45.50359 12.34350 20 ft 4 kts 176°
2026-04-29 17:03 45.50376 12.34349 21 ft 0 kts 176°
2026-04-29 17:05 45.50332 12.34351 21 ft 11 kts 178°
2026-04-29 17:06 45.50252 12.34356 21 ft 11 kts 177°
2026-04-29 17:06 45.50177 12.34359 21 ft 10 kts 181°
2026-04-29 17:06 45.50112 12.34325 21 ft 12 kts 220°
2026-04-29 17:06 45.50017 12.34201 21 ft 21 kts 222°
2026-04-29 17:07 45.49903 12.34054 21 ft 24 kts 222°
2026-04-29 17:07 45.49783 12.33900 21 ft 22 kts 222°
2026-04-29 17:07 45.49674 12.33762 21 ft 17 kts 223°
2026-04-29 17:07 45.49599 12.33664 21 ft 12 kts 222°
2026-04-29 17:08 45.49550 12.33608 21 ft 8 kts 204°
2026-04-29 17:08 45.49500 12.33624 21 ft 8 kts 139°
2026-04-29 17:08 45.49462 12.33676 21 ft 7 kts 134°
2026-04-29 17:08 45.49429 12.33726 21 ft 7 kts 132°
2026-04-29 17:09 45.49425 12.33784 21 ft 6 kts 60°
2026-04-29 17:09 45.49443 12.33814 21 ft 0 kts 43°
2026-04-29 17:09 45.49488 12.33873 21 ft 34 kts 41°
2026-04-29 17:09 45.49919 12.34431 21 ft 131 kts 41°
2026-04-29 17:10 45.50766 12.35499 358 ft 181 kts 42°
2026-04-29 17:10 45.51650 12.36727 1816 ft 174 kts 45°
2026-04-29 17:10 45.52484 12.37911 2959 ft 167 kts 45°
2026-04-29 17:10 45.53256 12.39149 3861 ft 171 kts 58°
2026-04-29 17:11 45.53541 12.40855 4439 ft 190 kts 86°
2026-04-29 17:11 45.53430 12.42798 5149 ft 202 kts 92°
2026-04-29 17:11 45.53266 12.44821 5867 ft 209 kts 96°
2026-04-29 17:11 45.53046 12.46928 6550 ft 218 kts 97°
2026-04-29 17:12 45.52812 12.49073 7359 ft 220 kts 97°
2026-04-29 17:12 45.52467 12.51212 8098 ft 225 kts 112°
2026-04-29 17:12 45.51478 12.52928 8800 ft 229 kts 143°
2026-04-29 17:12 45.50488 12.53568 9270 ft 235 kts 163°
2026-04-29 17:13 45.48197 12.53563 9691 ft 266 kts 186°
2026-04-29 17:13 45.46297 12.53163 10191 ft 283 kts 189°
2026-04-29 17:13 45.44304 12.52642 10757 ft 300 kts 191°
2026-04-29 17:13 45.42202 12.52090 11352 ft 314 kts 191°
2026-04-29 17:14 45.39985 12.51546 11857 ft 332 kts 191°
2026-04-29 17:14 45.37654 12.50996 12481 ft 345 kts 192°
2026-04-29 17:14 45.35281 12.50213 13181 ft 354 kts 199°
2026-04-29 17:14 45.32945 12.49004 14002 ft 359 kts 205°
2026-04-29 17:15 45.30653 12.47510 14904 ft 364 kts 208°
2026-04-29 17:15 45.28387 12.45846 15826 ft 367 kts 211°
2026-04-29 17:15 45.26162 12.44045 16693 ft 372 kts 213°
2026-04-29 17:15 45.23943 12.42160 17536 ft 376 kts 214°
2026-04-29 17:16 45.21664 12.40228 18360 ft 381 kts 214°
2026-04-29 17:16 45.19367 12.38301 19156 ft 386 kts 214°
2026-04-29 17:16 45.17042 12.36362 19912 ft 390 kts 214°
2026-04-29 17:16 45.14713 12.34424 20627 ft 394 kts 214°
2026-04-29 17:17 45.12335 12.32466 21324 ft 398 kts 213°
2026-04-29 17:17 45.09693 12.30967 21830 ft 413 kts 197°
2026-04-29 17:17 45.06831 12.30694 22452 ft 425 kts 179°
2026-04-29 17:17 45.03894 12.31687 23113 ft 436 kts 162°
2026-04-29 17:18 45.01139 12.33538 23664 ft 440 kts 157°
2026-04-29 17:18 44.98360 12.35454 24140 ft 447 kts 156°
2026-04-29 17:18 44.95581 12.37537 24686 ft 452 kts 154°
2026-04-29 17:18 44.92869 12.39750 25269 ft 455 kts 152°
2026-04-29 17:19 44.90152 12.42108 25775 ft 460 kts 149°
2026-04-29 17:19 44.87534 12.44784 26294 ft 465 kts 143°
2026-04-29 17:19 44.85107 12.47817 26816 ft 469 kts 139°
2026-04-29 17:19 44.82737 12.51002 27329 ft 473 kts 138°
2026-04-29 17:20 44.80360 12.54324 27845 ft 476 kts 137°
2026-04-29 17:20 44.78029 12.57665 28317 ft 480 kts 136°
2026-04-29 17:20 44.75726 12.61007 28749 ft 484 kts 136°
2026-04-29 17:20 44.73377 12.64416 29218 ft 487 kts 136°
2026-04-29 17:21 44.71013 12.67843 29672 ft 490 kts 136°
2026-04-29 17:21 44.68629 12.71294 30080 ft 493 kts 136°
2026-04-29 17:21 44.66225 12.74770 30528 ft 496 kts 136°
2026-04-29 17:21 44.63814 12.78251 30935 ft 498 kts 136°
2026-04-29 17:22 44.61382 12.81757 31297 ft 502 kts 136°
2026-04-29 17:22 44.58942 12.85271 31701 ft 504 kts 136°
2026-04-29 17:22 44.57313 12.87615 31991 ft 505 kts 136°
2026-04-29 17:22 44.54859 12.91141 32345 ft 507 kts 136°
2026-04-29 17:23 44.52384 12.94692 32699 ft 509 kts 136°
2026-04-29 17:23 44.49901 12.98251 33014 ft 512 kts 136°
2026-04-29 17:23 44.47404 13.01825 33347 ft 513 kts 136°
2026-04-29 17:23 44.44907 13.05395 33717 ft 513 kts 136°
2026-04-29 17:24 44.42413 13.08955 34226 ft 510 kts 137°
2026-04-29 17:24 44.39927 13.12500 34612 ft 510 kts 137°
2026-04-29 17:24 44.37436 13.16047 34967 ft 510 kts 137°
2026-04-29 17:24 44.34943 13.19593 35356 ft 510 kts 137°
2026-04-29 17:25 44.32452 13.23131 35704 ft 510 kts 137°
2026-04-29 17:25 44.29968 13.26653 36087 ft 509 kts 137°
2026-04-29 17:25 44.27482 13.30176 36410 ft 509 kts 137°
2026-04-29 17:25 44.24997 13.33691 36763 ft 509 kts 137°
2026-04-29 17:26 44.22504 13.37214 37098 ft 508 kts 137°
2026-04-29 17:26 44.20018 13.40722 37361 ft 509 kts 137°
2026-04-29 17:26 44.17516 13.44250 37636 ft 510 kts 137°
2026-04-29 17:26 44.15023 13.47758 37972 ft 509 kts 137°
2026-04-29 17:27 44.12535 13.51256 38244 ft 509 kts 137°
2026-04-29 17:27 44.10037 13.54763 38531 ft 509 kts 137°
2026-04-29 17:27 44.07546 13.58256 38822 ft 508 kts 137°
2026-04-29 17:27 44.05051 13.61751 39033 ft 509 kts 137°
2026-04-29 17:28 44.00052 13.68738 39053 ft 509 kts 137°
2026-04-29 17:28 43.95056 13.75703 39051 ft 508 kts 138°
2026-04-29 17:29 43.91016 13.81323 39052 ft 508 kts 138°
2026-04-29 17:29 43.86023 13.88253 39051 ft 508 kts 138°
2026-04-29 17:30 43.81024 13.95175 39048 ft 508 kts 138°
2026-04-29 17:30 43.76018 14.02087 39046 ft 508 kts 138°
2026-04-29 17:31 43.71010 14.08986 39045 ft 508 kts 138°
2026-04-29 17:31 43.65958 14.15928 39044 ft 508 kts 138°
2026-04-29 17:32 43.60944 14.22800 39042 ft 508 kts 138°
2026-04-29 17:32 43.55930 14.29656 39038 ft 507 kts 138°
2026-04-29 17:33 43.50914 14.36497 39039 ft 507 kts 138°
2026-04-29 17:33 43.45921 14.43290 39038 ft 508 kts 138°
2026-04-29 17:34 43.40866 14.50150 39037 ft 508 kts 138°
2026-04-29 17:34 43.35831 14.56967 39036 ft 507 kts 138°
2026-04-29 17:35 43.28290 14.67144 39032 ft 507 kts 138°
2026-04-29 17:36 43.23256 14.73918 39029 ft 507 kts 138°
2026-04-29 17:36 43.18222 14.80674 39028 ft 507 kts 138°
2026-04-29 17:37 43.13184 14.87421 39027 ft 507 kts 138°
2026-04-29 17:37 43.08158 14.94133 39026 ft 507 kts 139°
2026-04-29 17:38 43.03106 15.00865 39025 ft 507 kts 139°
2026-04-29 17:38 42.98055 15.07579 39024 ft 506 kts 139°
2026-04-29 17:39 42.93000 15.14283 39024 ft 506 kts 139°
2026-04-29 17:39 42.88031 15.20857 39023 ft 505 kts 139°
2026-04-29 17:40 42.82990 15.27509 39022 ft 505 kts 139°
2026-04-29 17:40 42.77963 15.34128 39022 ft 505 kts 139°
2026-04-29 17:41 42.72907 15.40769 39018 ft 505 kts 139°
2026-04-29 17:41 42.67851 15.47393 39017 ft 505 kts 139°
2026-04-29 17:42 42.62787 15.54014 39012 ft 504 kts 139°
2026-04-29 17:42 42.57722 15.60618 39007 ft 503 kts 139°
2026-04-29 17:43 42.52667 15.67195 39006 ft 503 kts 139°
2026-04-29 17:43 42.47609 15.73760 39007 ft 503 kts 139°
2026-04-29 17:44 42.42550 15.80311 39006 ft 502 kts 139°
2026-04-29 17:44 42.37524 15.86805 39007 ft 502 kts 139°
2026-04-29 17:45 42.32444 15.93351 39014 ft 501 kts 139°
2026-04-29 17:45 42.27424 15.99807 39012 ft 501 kts 139°
2026-04-29 17:46 42.22356 16.06309 39010 ft 501 kts 140°
2026-04-29 17:46 42.17265 16.12824 39009 ft 501 kts 140°
2026-04-29 17:47 42.12197 16.19296 39008 ft 501 kts 140°
2026-04-29 17:47 42.07137 16.25743 39007 ft 501 kts 140°
2026-04-29 17:48 42.02071 16.32181 39006 ft 501 kts 140°
2026-04-29 17:48 41.97000 16.38613 39004 ft 501 kts 140°
2026-04-29 17:49 41.91948 16.45004 39003 ft 501 kts 140°
2026-04-29 17:49 41.86878 16.51404 39003 ft 500 kts 140°
2026-04-29 17:50 41.81798 16.57803 39002 ft 501 kts 140°
2026-04-29 17:50 41.76706 16.64201 39002 ft 501 kts 140°
2026-04-29 17:51 41.71613 16.70586 39003 ft 501 kts 140°
2026-04-29 17:51 41.67380 16.75883 39003 ft 502 kts 140°
2026-04-29 17:52 41.62284 16.82246 39009 ft 501 kts 140°
2026-04-29 17:52 41.57166 16.88621 39008 ft 501 kts 140°
2026-04-29 17:53 41.52063 16.94964 39005 ft 502 kts 140°
2026-04-29 17:53 41.46937 17.01321 39001 ft 502 kts 140°
2026-04-29 17:54 41.41817 17.07656 39001 ft 502 kts 140°
2026-04-29 17:54 41.36693 17.13981 39001 ft 502 kts 140°
2026-04-29 17:55 41.31559 17.20306 39001 ft 502 kts 140°
2026-04-29 17:55 41.26440 17.26598 39002 ft 502 kts 140°
2026-04-29 17:56 41.21308 17.32891 39003 ft 502 kts 140°
2026-04-29 17:56 41.16163 17.39186 39006 ft 502 kts 140°
2026-04-29 17:57 41.11031 17.45452 39022 ft 502 kts 140°
2026-04-29 17:57 41.05886 17.51719 39015 ft 502 kts 140°
2026-04-29 17:58 41.00742 17.57972 39017 ft 501 kts 140°
2026-04-29 17:58 40.95599 17.64210 39019 ft 501 kts 140°
2026-04-29 17:59 40.90460 17.70429 39020 ft 500 kts 140°
2026-04-29 17:59 40.85320 17.76637 39021 ft 500 kts 140°
2026-04-29 18:00 40.79969 17.83084 39022 ft 500 kts 140°
2026-04-29 18:00 40.74834 17.89258 39024 ft 499 kts 140°
2026-04-29 18:01 40.69697 17.95421 39023 ft 499 kts 140°
2026-04-29 18:01 40.64558 18.01573 39023 ft 499 kts 140°
2026-04-29 18:02 40.59413 18.07719 38678 ft 499 kts 140°
2026-04-29 18:02 40.56843 18.10784 37933 ft 498 kts 140°
2026-04-29 18:02 40.54260 18.13861 36946 ft 502 kts 140°
2026-04-29 18:02 40.51689 18.16922 36147 ft 501 kts 140°
2026-04-29 18:03 40.49086 18.20017 35379 ft 499 kts 140°
2026-04-29 18:03 40.46524 18.23060 34624 ft 496 kts 140°
2026-04-29 18:03 40.43966 18.26095 33930 ft 492 kts 140°
2026-04-29 18:03 40.41443 18.29086 33318 ft 487 kts 139°
2026-04-29 18:04 40.38965 18.32021 32719 ft 482 kts 140°
2026-04-29 18:04 40.36456 18.34989 32119 ft 477 kts 140°
2026-04-29 18:04 40.34013 18.37876 31537 ft 472 kts 139°
2026-04-29 18:04 40.31582 18.40747 30957 ft 468 kts 139°
2026-04-29 18:05 40.29168 18.43594 30256 ft 467 kts 139°
2026-04-29 18:05 40.26741 18.46454 29288 ft 472 kts 139°
2026-04-29 18:05 40.24303 18.49326 28714 ft 468 kts 140°
2026-04-29 18:05 40.21901 18.52151 28231 ft 462 kts 140°
2026-04-29 18:06 40.19523 18.54947 27696 ft 457 kts 140°
2026-04-29 18:06 40.17169 18.57712 27164 ft 453 kts 140°
2026-04-29 18:06 40.14807 18.60484 26628 ft 448 kts 140°
2026-04-29 18:06 40.12521 18.63164 26108 ft 444 kts 140°
2026-04-29 18:07 40.10231 18.65848 25586 ft 440 kts 140°
2026-04-29 18:07 40.07959 18.68508 25066 ft 437 kts 140°
2026-04-29 18:07 40.05701 18.71152 24549 ft 434 kts 140°
2026-04-29 18:07 40.03506 18.73831 24045 ft 431 kts 137°
2026-04-29 18:08 40.01378 18.76566 23538 ft 427 kts 137°
2026-04-29 18:08 39.99251 18.79255 23036 ft 424 kts 138°
2026-04-29 18:08 39.97088 18.81850 22547 ft 420 kts 139°
2026-04-29 18:08 39.94913 18.84370 22057 ft 417 kts 140°
2026-04-29 18:09 39.92763 18.86867 21564 ft 414 kts 139°
2026-04-29 18:09 39.90627 18.89382 21067 ft 411 kts 139°
2026-04-29 18:09 39.88531 18.91901 20572 ft 408 kts 139°
2026-04-29 18:09 39.86436 18.94352 20082 ft 405 kts 139°
2026-04-29 18:10 39.84366 18.96834 19598 ft 402 kts 139°
2026-04-29 18:10 39.82309 18.99282 19110 ft 399 kts 139°
2026-04-29 18:10 39.80308 19.01773 18622 ft 397 kts 136°
2026-04-29 18:10 39.78439 19.04400 18143 ft 394 kts 133°
2026-04-29 18:11 39.76662 19.07114 17657 ft 392 kts 130°
2026-04-29 18:11 39.74942 19.09847 17170 ft 390 kts 130°
2026-04-29 18:11 39.73211 19.12542 16688 ft 387 kts 131°
2026-04-29 18:11 39.71460 19.15185 16210 ft 384 kts 132°
2026-04-29 18:12 39.69702 19.17779 15737 ft 381 kts 132°
2026-04-29 18:12 39.67946 19.20351 15265 ft 379 kts 132°
2026-04-29 18:12 39.66202 19.22906 14799 ft 376 kts 132°
2026-04-29 18:12 39.64471 19.25442 14346 ft 373 kts 132°
2026-04-29 18:13 39.62756 19.27954 13892 ft 370 kts 132°
2026-04-29 18:13 39.61052 19.30448 13435 ft 368 kts 132°
2026-04-29 18:13 39.59361 19.32923 12981 ft 365 kts 132°
2026-04-29 18:13 39.57681 19.35381 12525 ft 363 kts 132°
2026-04-29 18:14 39.56008 19.37824 12062 ft 361 kts 133°
2026-04-29 18:14 39.54290 19.40188 11598 ft 358 kts 135°
2026-04-29 18:14 39.53129 19.41699 11291 ft 357 kts 136°
2026-04-29 18:14 39.50765 19.44698 10636 ft 355 kts 136°
2026-04-29 18:15 39.49607 19.46189 10396 ft 351 kts 136°
2026-04-29 18:15 39.47920 19.48389 10309 ft 337 kts 135°
2026-04-29 18:15 39.46305 19.50502 10228 ft 324 kts 135°
2026-04-29 18:15 39.44760 19.52523 10145 ft 306 kts 135°
2026-04-29 18:16 39.43236 19.54342 10061 ft 292 kts 141°
2026-04-29 18:16 39.41656 19.55959 9793 ft 289 kts 143°
2026-04-29 18:16 39.40050 19.57522 9472 ft 288 kts 143°
2026-04-29 18:16 39.38463 19.59096 9154 ft 287 kts 142°
2026-04-29 18:17 39.36976 19.60805 8844 ft 286 kts 137°
2026-04-29 18:17 39.35633 19.62699 8533 ft 285 kts 130°
2026-04-29 18:17 39.34439 19.64734 8226 ft 284 kts 127°
2026-04-29 18:17 39.33293 19.66798 7920 ft 282 kts 126°
2026-04-29 18:18 39.32165 19.68869 7615 ft 281 kts 124°
2026-04-29 18:18 39.31170 19.71034 7312 ft 280 kts 117°
2026-04-29 18:18 39.30386 19.73335 7012 ft 279 kts 112°
2026-04-29 18:18 39.29717 19.75678 6713 ft 278 kts 110°
2026-04-29 18:19 39.29064 19.77989 6387 ft 275 kts 110°
2026-04-29 18:19 39.28427 19.80284 6065 ft 269 kts 108°
2026-04-29 18:19 39.27934 19.82615 5767 ft 269 kts 103°
2026-04-29 18:19 39.27576 19.84985 5464 ft 268 kts 99°
2026-04-29 18:20 39.27353 19.87371 5168 ft 268 kts 95°
2026-04-29 18:20 39.27255 19.89766 4893 ft 266 kts 92°
2026-04-29 18:20 39.27308 19.92107 4793 ft 255 kts 83°
2026-04-29 18:20 39.27843 19.94233 4724 ft 245 kts 65°
2026-04-29 18:21 39.28777 19.96003 4623 ft 235 kts 44°
2026-04-29 18:21 39.30189 19.96994 4353 ft 233 kts 18°
2026-04-29 18:21 39.31789 19.97401 4037 ft 234 kts
2026-04-29 18:21 39.33370 19.97700 3937 ft 226 kts
2026-04-29 18:22 39.34898 19.97957 3889 ft 215 kts
2026-04-29 18:22 39.36342 19.98154 3844 ft 202 kts
2026-04-29 18:22 39.37732 19.98154 3653 ft 197 kts 358°
2026-04-29 18:22 39.39007 19.98084 3396 ft 192 kts 357°
2026-04-29 18:23 39.40292 19.97987 3229 ft 175 kts 356°
2026-04-29 18:23 39.41466 19.97889 3041 ft 166 kts 355°
2026-04-29 18:23 39.42623 19.97678 2871 ft 169 kts 348°
2026-04-29 18:23 39.43761 19.97314 2706 ft 168 kts 345°
2026-04-29 18:24 39.44878 19.96891 2544 ft 168 kts 343°
2026-04-29 18:24 39.45994 19.96454 2387 ft 167 kts 342°
2026-04-29 18:24 39.47109 19.96027 2228 ft 167 kts 342°
2026-04-29 18:24 39.48209 19.95610 2075 ft 166 kts 342°
2026-04-29 18:25 39.49305 19.95194 1911 ft 157 kts 342°
2026-04-29 18:25 39.50329 19.94805 1771 ft 150 kts 342°
2026-04-29 18:25 39.51318 19.94429 1663 ft 146 kts 342°
2026-04-29 18:25 39.52264 19.94077 1465 ft 139 kts 342°
2026-04-29 18:26 39.53188 19.93733 1232 ft 138 kts 341°
2026-04-29 18:26 39.54099 19.93367 1029 ft 136 kts 340°
2026-04-29 18:26 39.55009 19.93009 853 ft 137 kts 340°
2026-04-29 18:26 39.55924 19.92644 688 ft 138 kts 340°
2026-04-29 18:27 39.56839 19.92272 503 ft 138 kts 340°
2026-04-29 18:27 39.57747 19.91909 355 ft 136 kts 341°
2026-04-29 18:27 39.58673 19.91614 153 ft 137 kts 345°
2026-04-29 18:27 39.59598 19.91372 22 ft 127 kts 346°
2026-04-29 18:28 39.60319 19.91181 20 ft 81 kts 349°
2026-04-29 18:28 39.60725 19.91076 20 ft 45 kts 348°
2026-04-29 18:28 39.60943 19.91021 20 ft 26 kts 349°
2026-04-29 18:28 39.61024 19.91033 20 ft 9 kts 41°
2026-04-29 18:29 39.61056 19.91098 20 ft 9 kts 98°
2026-04-29 18:29 39.61028 19.91129 20 ft 8 kts 165°
2026-04-29 18:29 39.60957 19.91147 20 ft 8 kts 169°
2026-04-29 18:29 39.60906 19.91160 20 ft 7 kts 168°
2026-04-29 18:30 39.60859 19.91173 20 ft 7 kts 170°
2026-04-29 18:30 39.60817 19.91187 20 ft 6 kts 146°
2026-04-29 18:30 39.60805 19.91235 20 ft 6 kts 87°
2026-04-29 18:30 39.60809 19.91284 20 ft 5 kts 82°
2026-04-29 18:31 39.60814 19.91326 20 ft 1 kts 81°